GW0378 Weather Reports


Display with metric or nautical units.
time (UTC)temp
F
wind
direction
speed
MPH
gust
MPH
rain 1hr
in
rain 24hr
in
rain mn
in
humidity
%
barometer
mb
20260509031108 61 160 1.0 7.0 0.00 0.00 0.00 34 1015.4
20260509030606 62 270 3.0 6.0 0.00 0.00 0.00 34 1015.4
20260509025558 62 252 3.0 10.0 0.00 0.00 0.00 32 1014.9
20260509025054 62 295 7.0 13.0 0.00 0.00 0.00 33 1014.9
20260509024550 63 261 5.0 10.0 0.00 0.00 0.00 34 1014.7
20260509024046 63 222 11.0 16.0 0.00 0.00 0.00 33 1014.4
20260509023544 63 230 5.0 11.0 0.00 0.00 0.00 34 1014.4
20260509023041 64 247 6.0 12.0 0.00 0.00 0.00 34 1014.4
20260509022537 64 245 12.0 17.0 0.00 0.00 0.00 34 1014.4
20260509022035 64 210 6.0 13.0 0.00 0.00 0.00 33 1014.1
20260509021532 65 250 9.0 15.0 0.00 0.00 0.00 32 1014.1
20260509021029 66 260 6.0 12.0 0.00 0.00 0.00 31 1014.1
20260509020528 67 274 6.0 11.0 0.00 0.00 0.00 30 1014.0
20260509020024 67 268 5.0 11.0 0.00 0.00 0.00 28 1013.9
20260509015523 67 270 9.0 12.0 0.00 0.00 0.00 27 1013.8
20260509015020 67 257 6.0 14.0 0.00 0.00 0.00 26 1013.8
20260509014516 67 265 4.0 10.0 0.00 0.00 0.00 27 1013.9
20260509014012 67 278 6.0 6.0 0.00 0.00 0.00 27 1013.7
20260509013510 66 243 4.0 9.0 0.00 0.00 0.00 26 1013.8
20260509013005 66 244 7.0 14.0 0.00 0.00 0.00 26 1013.9
20260509012502 66 229 6.0 15.0 0.00 0.00 0.00 25 1013.8
20260509011959 66 254 11.0 24.0 0.00 0.00 0.00 25 1013.7
20260509011457 66 223 9.0 15.0 0.00 0.00 0.00 24 1013.7
20260509010954 65 232 5.0 12.0 0.00 0.00 0.00 26 1013.7
20260509010452 65 270 3.0 8.0 0.00 0.00 0.00 25 1013.7
20260509005948 65 261 11.0 13.0 0.00 0.00 0.00 24 1013.8
20260509005446 65 238 7.0 11.0 0.00 0.00 0.00 24 1013.6
20260509004946 65 250 9.0 13.0 0.00 0.00 0.00 25 1013.5
20260509004443 66 245 2.0 9.0 0.00 0.00 0.00 26 1013.5
20260509003941 65 277 4.0 10.0 0.00 0.00 0.00 25 1013.6
20260509003439 66 259 6.0 14.0 0.00 0.00 0.00 25 1013.6
20260509002935 66 203 3.0 6.0 0.00 0.00 0.00 26 1013.5
20260509002433 66 223 4.0 9.0 0.00 0.00 0.00 25 1013.5
20260509001930 66 277 3.0 12.0 0.00 0.00 0.00 25 1013.6
20260509001426 66 235 3.0 9.0 0.00 0.00 0.00 28 1013.5
20260509000923 66 246 8.0 14.0 0.00 0.00 0.00 25 1013.7
20260509000421 66 239 4.0 12.0 0.00 0.00 0.00 26 1013.4
20260508235917 66 233 7.0 15.0 0.00 0.00 0.00 27 1013.6
20260508235415 66 263 10.0 20.0 0.00 0.00 0.00 26 1013.5
20260508234911 67 239 11.0 20.0 0.00 0.00 0.00 25 1013.4
20260508234409 67 244 11.0 18.0 0.00 0.00 0.00 27 1013.4
20260508233906 67 232 3.0 10.0 0.00 0.00 0.00 27 1013.5
20260508233406 68 283 7.0 13.0 0.00 0.00 0.00 26 1013.4
20260508232902 68 240 4.0 20.0 0.00 0.00 0.00 27 1013.4
20260508232358 68 255 3.0 16.0 0.00 0.00 0.00 28 1013.5
20260508231857 69 249 3.0 8.0 0.00 0.00 0.00 28 1013.2
20260508231353 69 212 6.0 7.0 0.00 0.00 0.00 29 1013.4
20260508230850 69 259 5.0 14.0 0.00 0.00 0.00 29 1013.5
20260508230346 69 252 2.0 12.0 0.00 0.00 0.00 35 1013.4
20260508225844 69 226 7.0 11.0 0.00 0.00 0.00 36 1013.2
20260508225340 68 275 5.0 11.0 0.00 0.00 0.00 38 1013.1
20260508224838 69 257 4.0 7.0 0.00 0.00 0.00 41 1013.4
20260508224335 69 283 3.0 5.0 0.00 0.00 0.00 40 1013.2
20260508223833 69 257 4.0 6.0 0.00 0.00 0.00 40 1013.2
20260508223330 68 278 5.0 5.0 0.00 0.00 0.00 40 1013.5
20260508222827 69 305 3.0 5.0 0.00 0.00 0.00 42 1013.4
20260508222325 69 301 2.0 4.0 0.00 0.00 0.00 42 1013.1
20260508221821 70 304 0.0 3.0 0.00 0.00 0.00 39 1013.4
20260508221316 70 220 2.0 2.0 0.00 0.00 0.00 39 1013.2
20260508220813 70 75 1.0 3.0 0.00 0.00 0.00 39 1013.1
20260508220310 69 255 0.0 3.0 0.00 0.00 0.00 38 1013.2
20260508215807 69 257 2.0 5.0 0.00 0.00 0.00 39 1013.4
20260508215306 69 337 0.0 5.0 0.00 0.00 0.00 39 1013.2
20260508214800 69 5 1.0 4.0 0.00 0.00 0.00 39 1013.4
20260508214257 69 282 0.0 6.0 0.00 0.00 0.00 39 1013.4
20260508213754 69 356 2.0 5.0 0.00 0.00 0.00 39 1013.4
20260508213250 70 261 4.0 4.0 0.00 0.00 0.00 41 1013.4
20260508212747 70 286 0.0 3.0 0.00 0.00 0.00 41 1013.6
20260508212243 69 4 2.0 4.0 0.00 0.00 0.00 40 1013.7
20260508211739 69 0 2.0 4.0 0.00 0.00 0.00 41 1013.6
20260508211235 69 236 3.0 3.0 0.00 0.00 0.00 41 1013.6
20260508210733 69 277 1.0 5.0 0.00 0.00 0.00 41 1013.7
20260508210229 69 11 2.0 5.0 0.00 0.00 0.00 40 1013.8
20260508205726 69 346 1.0 3.0 0.00 0.00 0.00 39 1013.8
20260508205223 69 20 0.0 3.0 0.00 0.00 0.00 39 1013.8
20260508204719 69 312 2.0 3.0 0.00 0.00 0.00 41 1013.9
20260508204215 69 35 0.0 3.0 0.00 0.00 0.00 40 1013.9
20260508203712 69 349 3.0 6.0 0.00 0.00 0.00 42 1013.8
20260508203208 68 279 4.0 6.0 0.00 0.00 0.00 44 1013.9
20260508202704 68 254 5.0 6.0 0.00 0.00 0.00 43 1014.1
20260508202201 69 286 3.0 5.0 0.00 0.00 0.00 43 1014.4
20260508201658 67 350 2.0 4.0 0.00 0.00 0.00 43 1014.0
20260508201155 67 272 5.0 7.0 0.00 0.00 0.00 43 1013.9
20260508200652 67 248 5.0 7.0 0.00 0.00 0.00 44 1014.0
20260508200147 68 294 2.0 5.0 0.00 0.00 0.00 44 1014.1
20260508195644 68 315 2.0 6.0 0.00 0.00 0.00 44 1014.4
20260508195141 67 327 2.0 4.0 0.00 0.00 0.00 45 1014.1
20260508194637 67 331 1.0 5.0 0.00 0.00 0.00 43 1014.2
20260508194134 67 326 3.0 4.0 0.00 0.00 0.00 44 1014.4
20260508193631 67 270 6.0 7.0 0.00 0.00 0.00 44 1014.5
20260508193128 67 270 5.0 8.0 0.00 0.00 0.00 45 1014.5
20260508192625 68 307 2.0 6.0 0.00 0.00 0.00 46 1014.1
20260508192122 67 8 0.0 4.0 0.00 0.00 0.00 43 1014.5
20260508191618 67 290 3.0 5.0 0.00 0.00 0.00 44 1014.6
20260508191115 67 311 3.0 5.0 0.00 0.00 0.00 44 1014.6
20260508190613 67 57 4.0 8.0 0.00 0.00 0.00 46 1014.4
20260508190109 66 270 2.0 5.0 0.00 0.00 0.00 45 1014.6
20260508185606 66 270 3.0 6.0 0.00 0.00 0.00 45 1014.9
20260508185103 66 290 5.0 7.0 0.00 0.00 0.00 46 1014.8
20260508184601 66 333 5.0 7.0 0.00 0.00 0.00 45 1014.8
20260508184057 67 59 2.0 4.0 0.00 0.00 0.00 45 1014.9
20260508183554 66 327 2.0 7.0 0.00 0.00 0.00 46 1015.1
20260508183050 65 66 1.0 7.0 0.00 0.00 0.00 46 1015.1
20260508182547 65 29 3.0 5.0 0.00 0.00 0.00 48 1015.0
20260508182043 64 19 2.0 6.0 0.00 0.00 0.00 48 1015.4
20260508181538 64 192 2.0 5.0 0.00 0.00 0.00 48 1015.5
20260508181036 64 142 5.0 5.0 0.00 0.00 0.00 48 1015.2
20260508180533 63 323 3.0 8.0 0.00 0.00 0.00 50 1015.4
20260508180029 64 0 2.0 4.0 0.00 0.00 0.00 51 1015.4
20260508175526 63 71 2.0 4.0 0.00 0.00 0.00 50 1015.5
20260508175023 63 338 2.0 5.0 0.00 0.00 0.00 51 1015.5
20260508174520 63 358 3.0 6.0 0.00 0.00 0.00 51 1015.7
20260508174017 62 270 3.0 5.0 0.00 0.00 0.00 52 1015.9
20260508173514 62 7 2.0 4.0 0.00 0.00 0.00 53 1015.8
20260508173010 61 321 2.0 6.0 0.00 0.00 0.00 53 1015.8
20260508172508 61 286 4.0 7.0 0.00 0.00 0.00 53 1015.7
20260508172004 61 78 2.0 5.0 0.00 0.00 0.00 55 1015.9
20260508171501 61 56 2.0 5.0 0.00 0.00 0.00 53 1015.9
20260508170957 62 69 0.0 1.0 0.00 0.00 0.00 54 1015.9
20260508170454 60 318 3.0 4.0 0.00 0.00 0.00 56 1016.0
20260508165951 61 340 5.0 7.0 0.00 0.00 0.00 55 1016.1
20260508165449 59 100 0.0 4.0 0.00 0.00 0.00 56 1016.2
20260508164944 60 226 5.0 7.0 0.00 0.00 0.00 56 1016.1
20260508164442 59 303 3.0 3.0 0.00 0.00 0.00 58 1016.1
20260508163939 58 127 3.0 4.0 0.00 0.00 0.00 59 1016.1
20260508163437 57 280 4.0 6.0 0.00 0.00 0.00 60 1016.5
20260508162932 57 18 3.0 5.0 0.00 0.00 0.00 61 1016.4
20260508162430 57 299 2.0 5.0 0.00 0.00 0.00 60 1016.2
20260508161926 57 266 0.0 6.0 0.00 0.00 0.00 62 1016.4
20260508161423 57 197 0.0 2.0 0.00 0.00 0.00 59 1016.7
20260508160921 56 213 2.0 4.0 0.00 0.00 0.00 61 1016.4
20260508160420 55 286 1.0 3.0 0.00 0.00 0.00 62 1016.5
20260508155915 55 304 2.0 5.0 0.00 0.00 0.00 63 1016.5
20260508155413 56 348 2.0 4.0 0.00 0.00 0.00 64 1016.6
20260508154910 55 0 0.0 4.0 0.00 0.00 0.00 63 1016.6
20260508154407 55 12 1.0 5.0 0.00 0.00 0.00 63 1016.7
20260508153904 54 0 0.0 4.0 0.00 0.00 0.00 67 1016.6
20260508153401 54 290 3.0 4.0 0.00 0.00 0.00 67 1016.6
20260508152857 54 0 2.0 3.0 0.00 0.00 0.00 66 1016.6
20260508152353 53 307 2.0 4.0 0.00 0.00 0.00 67 1016.8
20260508151850 52 270 1.0 4.0 0.00 0.00 0.00 68 1016.8
20260508151347 52 172 0.0 3.0 0.00 0.00 0.00 67 1016.7
20260508150843 52 300 1.0 3.0 0.00 0.00 0.00 69 1016.6
20260508150340 51 293 4.0 4.0 0.00 0.00 0.00 71 1016.9
20260508145836 51 354 3.0 4.0 0.00 0.00 0.00 70 1016.8
20260508145332 51 279 0.0 3.0 0.00 0.00 0.00 71 1016.7
20260508144829 52 295 2.0 3.0 0.00 0.00 0.00 70 1016.8
20260508144327 53 57 1.0 3.0 0.00 0.00 0.00 67 1016.8
20260508143824 51 82 0.0 2.0 0.00 0.00 0.00 71 1016.7
20260508143321 50 15 0.0 2.0 0.00 0.00 0.00 73 1016.7
20260508142818 50 0 0.0 3.0 0.00 0.00 0.00 74 1016.6
20260508142315 50 66 1.0 3.0 0.00 0.00 0.00 72 1016.8
20260508141811 50 56 2.0 2.0 0.00 0.00 0.00 73 1016.6
20260508141309 49 180 2.0 2.0 0.00 0.00 0.00 76 1016.7
20260508140806 48 187 0.0 1.0 0.00 0.00 0.00 77 1016.9
20260508140303 46 105 1.0 2.0 0.00 0.00 0.00 81 1016.7
20260508135758 46 96 2.0 2.0 0.00 0.00 0.00 83 1016.8
20260508135255 46 95 2.0 3.0 0.00 0.00 0.00 82 1016.8
20260508134750 45 81 2.0 3.0 0.00 0.00 0.00 84 1016.9
20260508134248 44 98 0.0 1.0 0.00 0.00 0.00 85 1016.7
20260508133744 44 120 0.0 1.0 0.00 0.00 0.00 84 1016.7
20260508133242 44 120 1.0 2.0 0.00 0.00 0.00 84 1016.7
20260508132740 45 270 0.0 2.0 0.00 0.00 0.00 84 1016.8
20260508132237 45 264 2.0 2.0 0.00 0.00 0.00 84 1016.7
20260508131732 44 180 0.0 2.0 0.00 0.00 0.00 85 1016.7
20260508131229 44 204 2.0 2.0 0.00 0.00 0.00 86 1016.6
20260508130726 43 102 3.0 4.0 0.00 0.00 0.00 86 1016.4
20260508130223 43 69 1.0 3.0 0.00 0.00 0.00 86 1016.5
20260508125718 43 105 2.0 2.0 0.00 0.00 0.00 86 1016.5
20260508125215 43 139 2.0 2.0 0.00 0.00 0.00 85 1016.4
20260508124713 43 120 0.0 2.0 0.00 0.00 0.00 86 1016.2
20260508124210 44 135 0.0 2.0 0.00 0.00 0.00 85 1016.2
20260508123709 43 165 0.0 0.0 0.00 0.00 0.00 85 1016.4
20260508123206 43 143 0.0 3.0 0.00 0.00 0.00 85 1016.2
20260508122702 43 105 2.0 2.0 0.00 0.00 0.00 86 1016.4
20260508122159 43 151 3.0 4.0 0.00 0.00 0.00 86 1016.1
20260508121657 42 117 2.0 3.0 0.00 0.00 0.00 86 1016.0
20260508121155 43 117 2.0 2.0 0.00 0.00 0.00 86 1016.0
20260508120652 43 114 1.0 3.0 0.00 0.00 0.00 85 1015.9
20260508120150 43 102 2.0 3.0 0.00 0.00 0.00 84 1016.1
20260508115648 43 104 3.0 3.0 0.00 0.00 0.00 84 1016.0
20260508115144 44 97 3.0 3.0 0.00 0.00 0.00 84 1016.0
20260508114641 44 131 0.0 2.0 0.00 0.00 0.00 83 1016.1
20260508114137 45 120 2.0 3.0 0.00 0.00 0.00 82 1016.0
20260508113635 44 90 2.0 3.0 0.00 0.00 0.00 83 1015.9
20260508113133 44 117 2.0 4.0 0.00 0.00 0.00 83 1015.8
20260508112629 44 114 0.0 2.0 0.00 0.00 0.00 83 1016.0
20260508112126 44 111 1.0 2.0 0.00 0.00 0.00 82 1015.9
20260508111622 44 135 0.0 3.0 0.00 0.00 0.00 83 1016.2
20260508111120 44 90 1.0 3.0 0.00 0.00 0.00 83 1016.1
20260508110618 44 101 2.0 2.0 0.00 0.00 0.00 82 1016.1
20260508110113 45 86 0.0 4.0 0.00 0.00 0.00 81 1015.9
20260508105608 45 113 3.0 6.0 0.00 0.00 0.00 81 1015.8
20260508105106 45 95 3.0 5.0 0.00 0.00 0.00 81 1015.9
20260508104603 45 107 4.0 4.0 0.00 0.00 0.00 81 1016.0
20260508104100 45 97 4.0 4.0 0.00 0.00 0.00 81 1016.1
20260508103557 46 103 3.0 4.0 0.00 0.00 0.00 79 1015.9
20260508103054 46 90 2.0 2.0 0.00 0.00 0.00 79 1015.9
20260508102552 46 120 1.0 3.0 0.00 0.00 0.00 79 1015.9
20260508102049 46 108 2.0 3.0 0.00 0.00 0.00 79 1015.8
20260508101546 47 124 2.0 5.0 0.00 0.00 0.00 77 1015.7
20260508101043 46 94 3.0 3.0 0.00 0.00 0.00 78 1015.7
20260508100542 46 103 2.0 3.0 0.00 0.00 0.00 79 1015.6
20260508100038 47 90 2.0 3.0 0.00 0.00 0.00 77 1015.7
20260508095535 47 84 3.0 3.0 0.00 0.00 0.00 77 1015.6
20260508095032 47 111 1.0 2.0 0.00 0.00 0.00 78 1015.4
20260508094529 46 85 2.0 2.0 0.00 0.00 0.00 78 1015.4
20260508094026 47 111 3.0 3.0 0.00 0.00 0.00 77 1015.6
20260508093523 47 106 3.0 3.0 0.00 0.00 0.00 77 1015.5
20260508093021 46 104 3.0 3.0 0.00 0.00 0.00 78 1015.6
20260508092518 46 95 2.0 2.0 0.00 0.00 0.00 78 1015.4
20260508092017 46 132 2.0 3.0 0.00 0.00 0.00 78 1015.2
20260508091513 47 121 2.0 3.0 0.00 0.00 0.00 77 1015.4
20260508091010 48 95 2.0 3.0 0.00 0.00 0.00 76 1015.4
20260508090508 48 107 2.0 3.0 0.00 0.00 0.00 75 1015.2
20260508090005 48 69 1.0 3.0 0.00 0.00 0.00 75 1015.5
20260508085501 48 109 2.0 2.0 0.00 0.00 0.00 74 1015.4
20260508084958 48 87 3.0 3.0 0.00 0.00 0.00 75 1015.5
20260508084455 47 97 1.0 3.0 0.00 0.00 0.00 76 1015.5
20260508083953 48 160 0.0 3.0 0.00 0.00 0.00 75 1015.5
20260508083449 47 115 3.0 5.0 0.00 0.00 0.00 76 1015.5
20260508082944 48 117 3.0 4.0 0.00 0.00 0.00 75 1015.2
20260508082442 48 118 4.0 5.0 0.00 0.00 0.00 74 1015.4
20260508081939 49 119 4.0 5.0 0.00 0.00 0.00 73 1015.4
20260508081436 48 96 5.0 6.0 0.00 0.00 0.00 74 1015.4
20260508080932 48 117 4.0 6.0 0.00 0.00 0.00 74 1015.4
20260508080431 49 72 3.0 5.0 0.00 0.00 0.00 73 1015.2
20260508075927 49 121 4.0 4.0 0.00 0.00 0.00 72 1015.2
20260508075424 49 109 3.0 5.0 0.00 0.00 0.00 72 1015.2
20260508074922 49 90 2.0 4.0 0.00 0.00 0.00 72 1015.2
20260508074419 50 101 3.0 4.0 0.00 0.00 0.00 70 1015.2
20260508073916 51 87 3.0 3.0 0.00 0.00 0.00 68 1015.1
20260508073414 52 105 2.0 2.0 0.00 0.00 0.00 66 1015.1
20260508072910 52 295 0.0 3.0 0.00 0.00 0.00 65 1015.4
20260508072406 51 82 1.0 2.0 0.00 0.00 0.00 67 1015.1
20260508071904 52 96 2.0 2.0 0.00 0.00 0.00 66 1015.2
20260508071402 52 117 1.0 2.0 0.00 0.00 0.00 66 1015.0
20260508070859 53 113 2.0 6.0 0.00 0.00 0.00 63 1015.0
20260508070357 53 102 4.0 9.0 0.00 0.00 0.00 62 1015.0
20260508065855 53 108 7.0 9.0 0.00 0.00 0.00 63 1015.1
20260508065353 53 74 6.0 7.0 0.00 0.00 0.00 63 1015.0
20260508064851 53 96 6.0 8.0 0.00 0.00 0.00 63 1015.0
20260508064348 53 105 6.0 9.0 0.00 0.00 0.00 62 1015.0
20260508063846 53 129 6.0 10.0 0.00 0.00 0.00 63 1015.1
20260508063343 53 94 5.0 7.0 0.00 0.00 0.00 63 1015.0
20260508062840 53 113 4.0 6.0 0.00 0.00 0.00 63 1014.9
20260508062337 53 95 6.0 6.0 0.00 0.00 0.00 63 1014.9
20260508061834 52 105 5.0 6.0 0.00 0.00 0.00 65 1015.0
20260508061332 51 105 5.0 5.0 0.00 0.00 0.00 66 1015.0
20260508060828 52 107 5.0 5.0 0.00 0.00 0.00 65 1015.1
20260508060326 52 101 4.0 5.0 0.00 0.00 0.00 64 1014.9
20260508055820 53 75 3.0 4.0 0.00 0.00 0.00 62 1015.0
20260508055319 53 73 3.0 4.0 0.00 0.00 0.00 61 1014.9
20260508054815 53 86 3.0 4.0 0.00 0.00 0.00 62 1014.9
20260508054313 53 105 3.0 4.0 0.00 0.00 0.00 61 1014.6
20260508053809 53 104 4.0 5.0 0.00 0.00 0.00 61 1014.8
20260508053307 53 94 2.0 5.0 0.00 0.00 0.00 61 1014.7
20260508052804 53 92 5.0 5.0 0.00 0.00 0.00 61 1014.5
20260508052301 54 105 3.0 4.0 0.00 0.00 0.00 60 1014.4
20260508051757 54 103 3.0 4.0 0.00 0.00 0.00 59 1014.5
20260508051252 54 99 3.0 3.0 0.00 0.00 0.00 59 1014.5
20260508050749 55 105 4.0 5.0 0.00 0.00 0.00 58 1014.5
20260508050246 55 105 4.0 4.0 0.00 0.00 0.00 57 1014.7
20260508045741 55 105 3.0 5.0 0.00 0.00 0.00 57 1014.6
20260508045240 55 102 3.0 5.0 0.00 0.00 0.00 57 1014.5
20260508044737 55 105 4.0 6.0 0.00 0.00 0.00 56 1014.5
20260508044234 55 103 2.0 3.0 0.00 0.00 0.00 57 1014.4
20260508043730 56 80 5.0 7.0 0.00 0.00 0.00 55 1014.2
20260508043228 56 170 2.0 5.0 0.00 0.00 0.00 56 1014.2
20260508042724 56 107 5.0 5.0 0.00 0.00 0.00 55 1014.1
20260508042221 56 93 3.0 4.0 0.00 0.00 0.00 56 1014.4
20260508041718 56 90 4.0 4.0 0.00 0.00 0.00 56 1014.4
20260508041215 56 93 3.0 4.0 0.00 0.00 0.00 55 1014.4
20260508040711 57 90 4.0 5.0 0.00 0.00 0.00 54 1014.1
20260508040208 57 112 3.0 5.0 0.00 0.00 0.00 54 1014.2
20260508035706 57 74 2.0 5.0 0.00 0.00 0.00 54 1014.0
20260508035203 57 99 3.0 5.0 0.00 0.00 0.00 54 1013.9
20260508034659 58 84 5.0 5.0 0.00 0.00 0.00 52 1013.9
20260508034156 59 106 4.0 5.0 0.00 0.00 0.00 52 1013.9
20260508033654 59 105 4.0 5.0 0.00 0.00 0.00 51 1013.9
20260508033152 60 148 2.0 4.0 0.00 0.00 0.00 48 1013.6
20260508032649 60 72 3.0 3.0 0.00 0.00 0.00 48 1013.7
20260508032146 61 81 0.0 1.0 0.00 0.00 0.00 46 1013.7
20260508031643 62 105 0.0 2.0 0.00 0.00 0.00 45 1013.2